Private Wetterstation Wechselburg
Wetterdaten: Dienstag, 27.12.2016
Datum Zeit Temp. +2m Bodentemp. Temp.+5cm Temp. Wind Windchill X Diff Temp. Feuchte +2m Feuchte +5cm Sonnenschein Luftdruck Regen Wind Richtung Richtung Sonnenschein Taupunkt Windchill Windben
27.12.2016 00:00 3,7 C 4,9 C 2,7 C 3,0 C 0,6 C 0,0 C 72 % 83 % 0 % 1028,6 hPa 0,0 l/m 9,3 km/h (2 Bft) SW 225 0 min -0,9 C -2,4 C 11,7 km/h (2 Bft)
27.12.2016 00:05 3,6 C 4,9 C 2,7 C 2,8 C 0,1 C 0,0 C 72 % 83 % 0 % 1028,6 hPa 0,0 l/m 11,3 km/h (2 Bft) S 180 0 min -1,0 C -3,5 C 17,2 km/h (3 Bft)
27.12.2016 00:10 3,7 C 4,9 C 2,7 C 2,9 C 0,2 C 0,0 C 72 % 83 % 0 % 1028,6 hPa 0,0 l/m 11,7 km/h (2 Bft) W-SW 247 0 min -0,9 C -3,5 C 15,6 km/h (3 Bft)
27.12.2016 00:15 3,6 C 4,9 C 2,7 C 2,5 C 0,2 C 0,0 C 72 % 83 % 0 % 1028,6 hPa 0,0 l/m 11,7 km/h (2 Bft) SW 225 0 min -1,0 C -3,5 C 25,6 km/h (4 Bft)
27.12.2016 00:20 3,6 C 5,0 C 2,6 C 2,8 C 0,1 C 0,0 C 73 % 83 % 0 % 1028,6 hPa 0,0 l/m 11,3 km/h (2 Bft) S 180 0 min -0,8 C -3,5 C 12,2 km/h (2 Bft)
27.12.2016 00:25 3,6 C 5,0 C 2,6 C 2,4 C 0,1 C 0,0 C 73 % 83 % 0 % 1028,6 hPa 0,0 l/m 11,4 km/h (2 Bft) W-SW 247 0 min -0,8 C -3,5 C 11,4 km/h (2 Bft)
27.12.2016 00:30 3,7 C 5,0 C 2,7 C 2,5 C 0,1 C 0,0 C 73 % 83 % 0 % 1028,6 hPa 0,0 l/m 11,6 km/h (2 Bft) N 360 0 min -0,7 C -3,6 C 14,6 km/h (3 Bft)
27.12.2016 00:35 3,6 C 5,0 C 2,5 C 2,8 C 0,2 C 0,0 C 73 % 83 % 0 % 1028,6 hPa 0,0 l/m 10,1 km/h (2 Bft) S-SW 202 0 min -0,8 C -3,1 C 9,7 km/h (2 Bft)
27.12.2016 00:40 3,5 C 4,8 C 2,5 C 2,7 C 0,4 C 0,0 C 73 % 83 % 0 % 1028,9 hPa 0,0 l/m 9,7 km/h (2 Bft) W 270 0 min -0,9 C -2,8 C 15,4 km/h (3 Bft)
27.12.2016 00:45 3,5 C 4,8 C 2,5 C 2,7 C -0,1 C 0,0 C 74 % 83 % 0 % 1028,9 hPa 0,0 l/m 10,8 km/h (2 Bft) W-SW 247 0 min -0,7 C -3,6 C 11,7 km/h (2 Bft)
27.12.2016 00:50 3,4 C 4,8 C 2,5 C 2,6 C -0,2 C 0,0 C 74 % 83 % 0 % 1028,9 hPa 0,0 l/m 11,4 km/h (2 Bft) SW 225 0 min -0,8 C -3,9 C 15,0 km/h (3 Bft)
27.12.2016 00:55 3,5 C 4,8 C 2,4 C 2,3 C -0,2 C 0,0 C 74 % 83 % 0 % 1028,9 hPa 0,0 l/m 11,3 km/h (2 Bft) W-SW 247 0 min -0,7 C -3,9 C 8,5 km/h (2 Bft)
27.12.2016 01:00 3,3 C 4,8 C 2,4 C 2,1 C -0,2 C 0,0 C 74 % 83 % 0 % 1029,1 hPa 0,0 l/m 10,9 km/h (2 Bft) S-SW 202 0 min -0,9 C -3,8 C 13,7 km/h (3 Bft)
27.12.2016 01:05 3,3 C 4,8 C 2,4 C 2,5 C -0,1 C 0,0 C 74 % 84 % 0 % 1029,1 hPa 0,0 l/m 10,0 km/h (2 Bft) SW 225 0 min -0,9 C -3,4 C 12,1 km/h (2 Bft)
27.12.2016 01:10 3,2 C 4,8 C 2,3 C 2,1 C -0,1 C 0,0 C 74 % 84 % 0 % 1029,1 hPa 0,0 l/m 10,3 km/h (2 Bft) SW 225 0 min -1,0 C -3,5 C 15,6 km/h (3 Bft)
27.12.2016 01:15 3,2 C 4,8 C 2,3 C 2,1 C -0,1 C 0,0 C 74 % 84 % 0 % 1029,1 hPa 0,0 l/m 10,3 km/h (2 Bft) W-SW 247 0 min -1,0 C -3,5 C 12,9 km/h (3 Bft)
27.12.2016 01:20 3,2 C 4,8 C 2,4 C 2,4 C -0,2 C 0,0 C 74 % 84 % 0 % 1028,9 hPa 0,0 l/m 10,8 km/h (2 Bft) S-SW 202 0 min -1,0 C -3,8 C 12,7 km/h (3 Bft)
27.12.2016 01:25 3,2 C 4,7 C 2,3 C 2,4 C -0,3 C 0,0 C 74 % 84 % 0 % 1028,9 hPa 0,0 l/m 11,1 km/h (2 Bft) W 270 0 min -1,0 C -4,0 C 12,4 km/h (3 Bft)
27.12.2016 01:30 3,2 C 4,7 C 2,4 C 2,0 C -0,3 C 0,0 C 74 % 83 % 0 % 1028,9 hPa 0,0 l/m 11,3 km/h (2 Bft) S-SW 202 0 min -1,0 C -4,0 C 12,6 km/h (3 Bft)
27.12.2016 01:35 3,2 C 4,7 C 2,4 C 2,4 C -0,4 C 0,0 C 75 % 83 % 0 % 1028,9 hPa 0,0 l/m 12,1 km/h (2 Bft) SW 225 0 min -0,8 C -4,3 C 21,1 km/h (4 Bft)
27.12.2016 01:40 3,2 C 4,7 C 2,4 C 2,3 C -0,5 C 0,0 C 75 % 83 % 0 % 1029,0 hPa 0,0 l/m 12,4 km/h (3 Bft) SW 225 0 min -0,8 C -4,5 C 16,3 km/h (3 Bft)
27.12.2016 01:45 3,2 C 4,7 C 2,5 C 2,0 C -0,5 C 0,0 C 75 % 83 % 0 % 1029,0 hPa 0,0 l/m 12,9 km/h (3 Bft) SW 225 0 min -0,8 C -4,6 C 15,4 km/h (3 Bft)
27.12.2016 01:50 3,2 C 4,7 C 2,5 C 2,4 C -0,4 C 0,0 C 75 % 83 % 0 % 1029,0 hPa 0,0 l/m 12,7 km/h (3 Bft) W 270 0 min -0,8 C -4,4 C 12,9 km/h (3 Bft)
27.12.2016 01:55 3,3 C 4,7 C 2,4 C 2,4 C -0,6 C 0,0 C 74 % 83 % 0 % 1029,0 hPa 0,0 l/m 13,4 km/h (3 Bft) SW 225 0 min -0,9 C -4,8 C 19,5 km/h (3 Bft)
27.12.2016 02:00 3,2 C 4,7 C 2,4 C 2,3 C -0,5 C 0,0 C 75 % 83 % 0 % 1029,1 hPa 0,0 l/m 13,0 km/h (3 Bft) SW 225 0 min -0,8 C -4,6 C 16,9 km/h (3 Bft)
27.12.2016 02:05 3,2 C 4,7 C 2,4 C 2,3 C -0,7 C 0,0 C 75 % 83 % 0 % 1029,1 hPa 0,0 l/m 13,0 km/h (3 Bft) W-SW 247 0 min -0,8 C -4,9 C 16,9 km/h (3 Bft)
27.12.2016 02:10 3,2 C 4,7 C 2,3 C 2,3 C -0,6 C 0,0 C 75 % 83 % 0 % 1029,1 hPa 0,0 l/m 12,9 km/h (3 Bft) W 270 0 min -0,8 C -4,7 C 19,8 km/h (3 Bft)
27.12.2016 02:15 3,2 C 4,6 C 2,3 C 2,3 C -0,5 C 0,0 C 75 % 83 % 0 % 1029,1 hPa 0,0 l/m 12,4 km/h (3 Bft) SW 225 0 min -0,8 C -4,5 C 11,1 km/h (2 Bft)
27.12.2016 02:20 3,3 C 4,6 C 2,4 C 2,0 C -0,5 C 0,0 C 75 % 83 % 0 % 1029,1 hPa 0,0 l/m 12,4 km/h (3 Bft) W-SW 247 0 min -0,7 C -4,5 C 20,3 km/h (4 Bft)
27.12.2016 02:25 3,2 C 4,6 C 2,4 C 2,0 C -0,5 C 0,0 C 75 % 83 % 0 % 1029,1 hPa 0,0 l/m 12,2 km/h (2 Bft) S 180 0 min -0,8 C -4,5 C 16,9 km/h (3 Bft)
27.12.2016 02:30 3,2 C 4,6 C 2,4 C 2,4 C -0,4 C 0,0 C 75 % 83 % 0 % 1029,1 hPa 0,0 l/m 12,4 km/h (3 Bft) SW 225 0 min -0,8 C -4,4 C 15,9 km/h (3 Bft)
27.12.2016 02:35 3,2 C 4,6 C 2,4 C 2,4 C -0,2 C 0,0 C 75 % 83 % 0 % 1029,1 hPa 0,0 l/m 12,2 km/h (2 Bft) S-SW 202 0 min -0,8 C -4,1 C 14,0 km/h (3 Bft)
27.12.2016 02:40 3,2 C 4,6 C 2,5 C 2,1 C -0,2 C 0,0 C 75 % 83 % 0 % 1028,8 hPa 0,0 l/m 11,9 km/h (2 Bft) W-SW 247 0 min -0,8 C -4,0 C 11,6 km/h (2 Bft)
27.12.2016 02:45 3,2 C 4,6 C 2,4 C 2,1 C -0,2 C 0,0 C 75 % 84 % 0 % 1028,8 hPa 0,0 l/m 12,6 km/h (3 Bft) SW 225 0 min -0,8 C -4,2 C 15,9 km/h (3 Bft)
27.12.2016 02:50 3,3 C 4,6 C 2,7 C 2,5 C -0,1 C 0,0 C 75 % 84 % 0 % 1028,8 hPa 0,0 l/m 13,0 km/h (3 Bft) W-SW 247 0 min -0,7 C -4,1 C 17,7 km/h (3 Bft)
27.12.2016 02:55 3,4 C 4,6 C 2,6 C 2,7 C 0,3 C 0,0 C 75 % 84 % 0 % 1028,8 hPa 0,0 l/m 12,2 km/h (2 Bft) W-NW 292 0 min -0,6 C -3,5 C 17,1 km/h (3 Bft)
27.12.2016 03:00 3,5 C 4,6 C 2,7 C 2,8 C 0,5 C 0,0 C 75 % 83 % 0 % 1028,8 hPa 0,0 l/m 11,7 km/h (2 Bft) W 270 0 min -0,5 C -3,1 C 15,6 km/h (3 Bft)
27.12.2016 03:05 3,4 C 4,6 C 2,7 C 2,8 C 0,6 C 0,0 C 75 % 83 % 0 % 1028,8 hPa 0,0 l/m 11,4 km/h (2 Bft) S 180 0 min -0,6 C -2,9 C 13,4 km/h (3 Bft)
27.12.2016 03:10 3,5 C 4,6 C 2,7 C 2,9 C 0,8 C 0,0 C 75 % 83 % 0 % 1028,8 hPa 0,0 l/m 10,5 km/h (2 Bft) SW 225 0 min -0,5 C -2,5 C 8,2 km/h (2 Bft)
27.12.2016 03:15 3,5 C 4,6 C 2,7 C 2,8 C 0,5 C 0,0 C 75 % 83 % 0 % 1028,8 hPa 0,0 l/m 10,5 km/h (2 Bft) W-SW 247 0 min -0,5 C -2,8 C 12,6 km/h (3 Bft)
27.12.2016 03:20 3,5 C 4,6 C 2,7 C 2,8 C 0,4 C 0,0 C 75 % 83 % 0 % 1028,9 hPa 0,0 l/m 10,9 km/h (2 Bft) W 270 0 min -0,5 C -3,1 C 15,9 km/h (3 Bft)
27.12.2016 03:25 3,5 C 4,5 C 2,9 C 2,8 C 0,6 C 0,0 C 75 % 83 % 0 % 1028,9 hPa 0,0 l/m 11,4 km/h (2 Bft) SW 225 0 min -0,5 C -2,9 C 11,6 km/h (2 Bft)
27.12.2016 03:30 3,6 C 4,5 C 2,8 C 2,9 C 0,5 C 0,0 C 75 % 83 % 0 % 1028,9 hPa 0,0 l/m 11,7 km/h (2 Bft) W-SW 247 0 min -0,4 C -3,1 C 8,5 km/h (2 Bft)
27.12.2016 03:35 3,6 C 4,5 C 2,9 C 2,9 C 0,6 C 0,0 C 75 % 83 % 0 % 1028,9 hPa 0,0 l/m 11,7 km/h (2 Bft) W-SW 247 0 min -0,4 C -3,0 C 12,1 km/h (2 Bft)
27.12.2016 03:40 3,6 C 4,5 C 3,0 C 2,9 C 0,7 C 0,0 C 75 % 83 % 0 % 1028,9 hPa 0,0 l/m 11,4 km/h (2 Bft) SW 225 0 min -0,4 C -2,8 C 12,1 km/h (2 Bft)
27.12.2016 03:45 3,7 C 4,5 C 3,1 C 3,1 C 1,1 C 0,0 C 75 % 82 % 0 % 1028,9 hPa 0,0 l/m 11,3 km/h (2 Bft) S 180 0 min -0,3 C -2,3 C 11,4 km/h (2 Bft)
27.12.2016 03:50 3,7 C 4,5 C 3,1 C 2,8 C 1,1 C 0,0 C 75 % 83 % 0 % 1028,9 hPa 0,0 l/m 11,6 km/h (2 Bft) S-SW 202 0 min -0,3 C -2,4 C 16,1 km/h (3 Bft)
27.12.2016 03:55 3,7 C 4,5 C 3,2 C 2,8 C 1,1 C 0,0 C 76 % 83 % 0 % 1028,9 hPa 0,0 l/m 11,6 km/h (2 Bft) W 270 0 min -0,1 C -2,4 C 10,9 km/h (2 Bft)
27.12.2016 04:00 3,7 C 4,5 C 3,2 C 3,2 C 1,3 C 0,0 C 76 % 83 % 0 % 1029,5 hPa 0,0 l/m 10,6 km/h (2 Bft) W-SW 247 0 min -0,1 C -1,9 C 9,7 km/h (2 Bft)
27.12.2016 04:05 3,8 C 4,5 C 3,2 C 3,0 C 1,3 C 0,0 C 76 % 83 % 0 % 1029,5 hPa 0,0 l/m 11,1 km/h (2 Bft) SW 225 0 min -0,0 C -2,0 C 14,8 km/h (3 Bft)
27.12.2016 04:10 3,8 C 4,5 C 3,2 C 3,3 C 1,2 C 0,0 C 76 % 83 % 0 % 1029,5 hPa 0,0 l/m 11,9 km/h (2 Bft) SW 225 0 min -0,0 C -2,3 C 16,9 km/h (3 Bft)
27.12.2016 04:15 3,9 C 4,5 C 3,3 C 3,0 C 1,2 C 0,0 C 75 % 83 % 0 % 1029,5 hPa 0,0 l/m 11,9 km/h (2 Bft) S-SW 202 0 min -0,1 C -2,3 C 29,6 km/h (5 Bft)
27.12.2016 04:20 3,9 C 4,5 C 3,3 C 3,3 C 1,3 C 0,0 C 75 % 82 % 0 % 1029,3 hPa 0,0 l/m 12,1 km/h (2 Bft) SW 225 0 min -0,1 C -2,2 C 15,6 km/h (3 Bft)
27.12.2016 04:25 4,1 C 4,5 C 3,5 C 3,5 C 1,1 C 0,0 C 75 % 82 % 0 % 1029,3 hPa 0,0 l/m 13,4 km/h (3 Bft) W-SW 247 0 min 0,1 C -2,8 C 25,6 km/h (4 Bft)
27.12.2016 04:30 4,1 C 4,5 C 3,4 C 3,4 C 0,9 C 0,0 C 75 % 82 % 0 % 1029,3 hPa 0,0 l/m 14,6 km/h (3 Bft) W-SW 247 0 min 0,1 C -3,2 C 15,9 km/h (3 Bft)
27.12.2016 04:35 4,0 C 4,5 C 3,5 C 3,0 C 0,9 C 0,0 C 75 % 82 % 0 % 1029,3 hPa 0,0 l/m 14,8 km/h (3 Bft) W 270 0 min -0,0 C -3,3 C 19,8 km/h (3 Bft)
27.12.2016 04:40 4,1 C 4,5 C 3,5 C 3,0 C 0,9 C 0,0 C 75 % 82 % 0 % 1029,3 hPa 0,0 l/m 14,2 km/h (3 Bft) W-SW 247 0 min 0,1 C -3,2 C 13,8 km/h (3 Bft)
27.12.2016 04:45 4,1 C 4,5 C 3,6 C 3,5 C 1,2 C 0,0 C 75 % 82 % 0 % 1029,3 hPa 0,0 l/m 14,3 km/h (3 Bft) W-SW 247 0 min 0,1 C -2,8 C 14,6 km/h (3 Bft)
27.12.2016 04:50 4,3 C 4,5 C 3,6 C 3,7 C 1,4 C 0,0 C 75 % 82 % 0 % 1029,3 hPa 0,0 l/m 13,8 km/h (3 Bft) W-SW 247 0 min 0,3 C -2,5 C 15,8 km/h (3 Bft)
27.12.2016 04:55 4,3 C 4,5 C 3,7 C 3,7 C 1,5 C 0,0 C 75 % 82 % 0 % 1029,3 hPa 0,0 l/m 13,5 km/h (3 Bft) W-SW 247 0 min 0,3 C -2,3 C 16,6 km/h (3 Bft)
27.12.2016 05:00 4,5 C 4,5 C 3,9 C 3,5 C 1,5 C 0,0 C 74 % 81 % 0 % 1029,2 hPa 0,0 l/m 14,6 km/h (3 Bft) W-SW 247 0 min 0,3 C -2,5 C 27,7 km/h (4 Bft)
27.12.2016 05:05 4,4 C 4,5 C 3,9 C 3,8 C 1,4 C 0,0 C 74 % 81 % 0 % 1029,2 hPa 0,0 l/m 15,3 km/h (3 Bft) SW 225 0 min 0,2 C -2,7 C 20,6 km/h (4 Bft)
27.12.2016 05:10 4,4 C 4,5 C 3,9 C 3,8 C 1,5 C 0,0 C 74 % 81 % 0 % 1029,2 hPa 0,0 l/m 14,8 km/h (3 Bft) W-SW 247 0 min 0,2 C -2,5 C 11,6 km/h (2 Bft)
27.12.2016 05:15 4,5 C 4,5 C 4,0 C 3,9 C 1,6 C 0,0 C 74 % 80 % 0 % 1029,2 hPa 0,0 l/m 16,1 km/h (3 Bft) W-SW 247 0 min 0,3 C -2,6 C 31,4 km/h (5 Bft)
27.12.2016 05:20 4,5 C 4,5 C 3,9 C 3,9 C 1,5 C 0,0 C 74 % 81 % 0 % 1029,2 hPa 0,0 l/m 15,0 km/h (3 Bft) W 270 0 min 0,3 C -2,6 C 10,0 km/h (2 Bft)
27.12.2016 05:25 4,4 C 4,5 C 3,9 C 3,8 C 1,4 C 0,0 C 74 % 81 % 0 % 1029,2 hPa 0,0 l/m 13,8 km/h (3 Bft) W-SW 247 0 min 0,2 C -2,5 C 21,9 km/h (4 Bft)
27.12.2016 05:30 4,4 C 4,5 C 3,9 C 3,4 C 1,4 C 0,0 C 74 % 81 % 0 % 1029,2 hPa 0,0 l/m 14,2 km/h (3 Bft) W-SW 247 0 min 0,2 C -2,5 C 18,8 km/h (3 Bft)
27.12.2016 05:35 4,5 C 4,5 C 3,9 C 3,5 C 1,4 C 0,0 C 74 % 81 % 0 % 1029,2 hPa 0,0 l/m 14,6 km/h (3 Bft) W-SW 247 0 min 0,3 C -2,6 C 19,2 km/h (3 Bft)
27.12.2016 05:40 4,5 C 4,5 C 3,9 C 3,8 C 1,5 C 0,0 C 74 % 81 % 0 % 1029,2 hPa 0,0 l/m 14,5 km/h (3 Bft) SW 225 0 min 0,3 C -2,5 C 20,1 km/h (4 Bft)
27.12.2016 05:45 4,5 C 4,5 C 4,0 C 3,9 C 1,6 C 0,0 C 75 % 81 % 0 % 1029,2 hPa 0,0 l/m 13,5 km/h (3 Bft) S 180 0 min 0,5 C -2,2 C 18,7 km/h (3 Bft)
27.12.2016 05:50 4,5 C 4,5 C 4,0 C 3,5 C 1,6 C 0,0 C 74 % 81 % 0 % 1029,2 hPa 0,0 l/m 14,5 km/h (3 Bft) W-SW 247 0 min 0,3 C -2,4 C 21,4 km/h (4 Bft)
27.12.2016 05:55 4,5 C 4,5 C 4,0 C 3,9 C 1,7 C 0,0 C 75 % 81 % 0 % 1029,2 hPa 0,0 l/m 15,1 km/h (3 Bft) W-SW 247 0 min 0,5 C -2,3 C 19,5 km/h (3 Bft)
27.12.2016 06:00 4,6 C 4,5 C 4,1 C 3,6 C 1,7 C 0,0 C 75 % 81 % 0 % 1028,9 hPa 0,0 l/m 15,4 km/h (3 Bft) W-SW 247 0 min 0,6 C -2,4 C 17,1 km/h (3 Bft)
27.12.2016 06:05 4,7 C 4,5 C 4,0 C 3,7 C 1,7 C 0,0 C 75 % 81 % 0 % 1028,9 hPa 0,0 l/m 15,1 km/h (3 Bft) S-SW 202 0 min 0,7 C -2,3 C 16,4 km/h (3 Bft)
27.12.2016 06:10 4,7 C 4,5 C 4,0 C 3,7 C 1,7 C 0,0 C 75 % 81 % 0 % 1028,9 hPa 0,0 l/m 15,0 km/h (3 Bft) W-SW 247 0 min 0,7 C -2,3 C 16,9 km/h (3 Bft)
27.12.2016 06:15 4,7 C 4,5 C 4,1 C 3,7 C 1,7 C 0,0 C 75 % 81 % 0 % 1028,9 hPa 0,0 l/m 15,0 km/h (3 Bft) W 270 0 min 0,7 C -2,3 C 14,2 km/h (3 Bft)
27.12.2016 06:20 4,6 C 4,5 C 4,1 C 4,0 C 1,8 C 0,0 C 75 % 81 % 0 % 1028,9 hPa 0,0 l/m 14,3 km/h (3 Bft) W-SW 247 0 min 0,6 C -2,1 C 18,5 km/h (3 Bft)
27.12.2016 06:25 4,7 C 4,5 C 4,2 C 4,1 C 1,7 C 0,0 C 75 % 80 % 0 % 1028,9 hPa 0,0 l/m 15,9 km/h (3 Bft) W-SW 247 0 min 0,7 C -2,5 C 18,5 km/h (3 Bft)
27.12.2016 06:30 4,7 C 4,5 C 4,1 C 4,1 C 1,6 C 0,0 C 75 % 80 % 0 % 1028,9 hPa 0,0 l/m 16,7 km/h (3 Bft) W-SW 247 0 min 0,7 C -2,7 C 19,0 km/h (3 Bft)
27.12.2016 06:35 4,7 C 4,5 C 4,3 C 4,1 C 1,7 C 0,0 C 75 % 80 % 0 % 1028,9 hPa 0,0 l/m 16,1 km/h (3 Bft) SW 225 0 min 0,7 C -2,5 C 24,3 km/h (4 Bft)
27.12.2016 06:40 4,7 C 4,5 C 4,1 C 3,7 C 1,7 C 0,0 C 75 % 80 % 0 % 1028,9 hPa 0,0 l/m 15,4 km/h (3 Bft) SW 225 0 min 0,7 C -2,4 C 27,0 km/h (4 Bft)
27.12.2016 06:45 4,7 C 4,5 C 4,1 C 4,1 C 1,8 C 0,0 C 75 % 80 % 0 % 1028,9 hPa 0,0 l/m 14,5 km/h (3 Bft) W-SW 247 0 min 0,7 C -2,1 C 18,5 km/h (3 Bft)
27.12.2016 06:50 4,7 C 4,5 C 4,1 C 4,1 C 1,9 C 0,0 C 75 % 80 % 0 % 1028,9 hPa 0,0 l/m 14,3 km/h (3 Bft) SW 225 0 min 0,7 C -1,9 C 11,9 km/h (2 Bft)
27.12.2016 06:55 4,7 C 4,5 C 4,1 C 4,1 C 1,8 C 0,0 C 75 % 81 % 0 % 1028,9 hPa 0,0 l/m 14,5 km/h (3 Bft) W-SW 247 0 min 0,7 C -2,1 C 27,2 km/h (4 Bft)
27.12.2016 07:00 4,6 C 4,5 C 4,1 C 4,0 C 1,7 C 0,0 C 75 % 81 % 0 % 1029,1 hPa 0,0 l/m 15,1 km/h (3 Bft) S-SW 202 0 min 0,6 C -2,3 C 24,6 km/h (4 Bft)
27.12.2016 07:05 4,7 C 4,5 C 4,0 C 3,7 C 1,7 C 0,0 C 75 % 81 % 0 % 1029,1 hPa 0,0 l/m 15,1 km/h (3 Bft) W 270 0 min 0,7 C -2,3 C 12,9 km/h (3 Bft)
27.12.2016 07:10 4,6 C 4,3 C 4,0 C 3,9 C 1,4 C 0,0 C 75 % 81 % 0 % 1029,1 hPa 0,0 l/m 15,0 km/h (3 Bft) W-SW 247 0 min 0,6 C -2,7 C 18,0 km/h (3 Bft)
27.12.2016 07:15 4,7 C 4,3 C 3,9 C 4,0 C 1,7 C 0,0 C 75 % 81 % 0 % 1029,1 hPa 0,0 l/m 12,7 km/h (3 Bft) W-SW 247 0 min 0,7 C -1,9 C 9,0 km/h (2 Bft)
27.12.2016 07:20 4,5 C 4,3 C 3,9 C 3,6 C 1,7 C 0,0 C 75 % 81 % 0 % 1029,1 hPa 0,0 l/m 12,2 km/h (2 Bft) SW 225 0 min 0,5 C -1,8 C 16,6 km/h (3 Bft)
27.12.2016 07:25 4,7 C 4,3 C 4,0 C 3,7 C 1,7 C 0,0 C 75 % 81 % 0 % 1029,1 hPa 0,0 l/m 12,7 km/h (3 Bft) W-SW 247 0 min 0,7 C -1,9 C 16,6 km/h (3 Bft)
27.12.2016 07:30 4,7 C 4,3 C 4,0 C 4,0 C 1,6 C 0,0 C 75 % 81 % 0 % 1029,1 hPa 0,0 l/m 13,7 km/h (3 Bft) W-SW 247 0 min 0,7 C -2,2 C 16,4 km/h (3 Bft)
27.12.2016 07:35 4,6 C 4,3 C 4,0 C 3,6 C 1,6 C 0,0 C 76 % 81 % 0 % 1029,1 hPa 0,0 l/m 13,8 km/h (3 Bft) W 270 0 min 0,7 C -2,2 C 15,0 km/h (3 Bft)
27.12.2016 07:40 4,5 C 4,3 C 3,9 C 3,9 C 1,7 C 0,0 C 76 % 82 % 0 % 1029,1 hPa 0,0 l/m 12,2 km/h (2 Bft) SW 225 0 min 0,6 C -1,8 C 12,2 km/h (2 Bft)
27.12.2016 07:45 4,5 C 4,3 C 4,0 C 3,9 C 1,9 C 0,0 C 76 % 82 % 0 % 1029,1 hPa 0,0 l/m 12,2 km/h (2 Bft) SW 225 0 min 0,6 C -1,5 C 22,5 km/h (4 Bft)
27.12.2016 07:50 4,5 C 4,3 C 4,1 C 3,9 C 1,6 C 0,0 C 76 % 82 % 0 % 1029,1 hPa 0,0 l/m 13,7 km/h (3 Bft) W-SW 247 0 min 0,6 C -2,2 C 15,8 km/h (3 Bft)
27.12.2016 07:55 4,6 C 4,3 C 4,0 C 4,0 C 1,8 C 0,0 C 76 % 82 % 0 % 1029,1 hPa 0,0 l/m 12,9 km/h (3 Bft) W-NW 292 0 min 0,7 C -1,8 C 14,5 km/h (3 Bft)
27.12.2016 08:00 4,7 C 4,3 C 4,1 C 4,1 C 2,0 C 0,0 C 76 % 81 % 0 % 1029,1 hPa 0,0 l/m 13,4 km/h (3 Bft) W-SW 247 0 min 0,8 C -1,7 C 15,6 km/h (3 Bft)
27.12.2016 08:05 4,6 C 4,3 C 4,1 C 4,0 C 1,9 C 0,0 C 76 % 81 % 0 % 1029,1 hPa 0,0 l/m 13,5 km/h (3 Bft) W-SW 247 0 min 0,7 C -1,8 C 14,6 km/h (3 Bft)
27.12.2016 08:10 4,7 C 4,3 C 4,1 C 4,1 C 2,1 C 0,0 C 76 % 81 % 0 % 1029,1 hPa 0,0 l/m 12,7 km/h (3 Bft) W-SW 247 0 min 0,8 C -1,4 C 11,3 km/h (2 Bft)
27.12.2016 08:15 4,6 C 4,3 C 4,1 C 4,1 C 2,2 C 0,0 C 76 % 81 % 0 % 1029,1 hPa 0,0 l/m 12,4 km/h (3 Bft) S 180 0 min 0,7 C -1,2 C 10,1 km/h (2 Bft)
27.12.2016 08:20 4,7 C 4,3 C 4,1 C 3,9 C 2,2 C 0,0 C 76 % 81 % 0 % 1029,1 hPa 0,0 l/m 12,1 km/h (2 Bft) W-SW 247 0 min 0,8 C -1,2 C 11,9 km/h (2 Bft)
27.12.2016 08:25 4,7 C 4,3 C 4,3 C 4,2 C 2,3 C 0,0 C 75 % 81 % 0 % 1029,1 hPa 0,0 l/m 12,6 km/h (3 Bft) W-SW 247 0 min 0,7 C -1,1 C 12,6 km/h (3 Bft)
27.12.2016 08:30 4,7 C 4,3 C 4,2 C 4,2 C 2,1 C 0,0 C 75 % 81 % 0 % 1029,1 hPa 0,0 l/m 13,5 km/h (3 Bft) S-SW 202 0 min 0,7 C -1,6 C 27,5 km/h (4 Bft)
27.12.2016 08:35 4,7 C 4,3 C 4,3 C 4,2 C 2,2 C 0,0 C 75 % 81 % 0 % 1029,1 hPa 0,0 l/m 12,9 km/h (3 Bft) W 270 0 min 0,7 C -1,3 C 19,2 km/h (3 Bft)
27.12.2016 08:40 4,7 C 4,3 C 4,2 C 4,2 C 2,0 C 0,0 C 75 % 81 % 0 % 1029,7 hPa 0,0 l/m 14,2 km/h (3 Bft) O-SO 112 0 min 0,7 C -1,8 C 23,0 km/h (4 Bft)
27.12.2016 08:45 4,8 C 4,3 C 4,3 C 3,9 C 2,0 C 0,0 C 75 % 81 % 0 % 1029,7 hPa 0,0 l/m 15,1 km/h (3 Bft) W-SW 247 0 min 0,8 C -2,0 C 13,2 km/h (3 Bft)
27.12.2016 08:50 4,8 C 4,3 C 4,3 C 4,2 C 2,1 C 0,0 C 75 % 81 % 0 % 1029,7 hPa 0,0 l/m 14,6 km/h (3 Bft) W-SW 247 0 min 0,8 C -1,8 C 17,1 km/h (3 Bft)
27.12.2016 08:55 4,8 C 4,3 C 4,3 C 4,3 C 2,3 C 0,0 C 75 % 80 % 0 % 1029,7 hPa 0,0 l/m 13,4 km/h (3 Bft) W-SW 247 0 min 0,8 C -1,3 C 10,3 km/h (2 Bft)
27.12.2016 09:00 4,9 C 4,3 C 4,3 C 4,4 C 2,4 C 0,0 C 75 % 81 % 0 % 1029,7 hPa 0,0 l/m 12,7 km/h (3 Bft) W-SW 247 0 min 0,8 C -1,0 C 14,6 km/h (3 Bft)
27.12.2016 09:05 4,8 C 4,3 C 4,4 C 4,3 C 2,3 C 0,0 C 75 % 81 % 0 % 1029,7 hPa 0,0 l/m 13,2 km/h (3 Bft) W-SW 247 0 min 0,8 C -1,3 C 18,0 km/h (3 Bft)
27.12.2016 09:10 4,8 C 4,3 C 4,3 C 4,0 C 2,3 C 0,0 C 75 % 81 % 0 % 1029,7 hPa 0,0 l/m 13,2 km/h (3 Bft) W-SW 247 0 min 0,8 C -1,3 C 22,4 km/h (4 Bft)
27.12.2016 09:15 4,9 C 4,3 C 4,5 C 4,4 C 2,4 C 0,0 C 75 % 81 % 0 % 1029,7 hPa 0,0 l/m 13,0 km/h (3 Bft) SW 225 0 min 0,8 C -1,1 C 12,4 km/h (3 Bft)
27.12.2016 09:20 4,9 C 4,3 C 4,4 C 4,4 C 2,6 C 0,0 C 75 % 81 % 0 % 1030,7 hPa 0,0 l/m 12,2 km/h (2 Bft) W-SW 247 0 min 0,8 C -0,7 C 18,5 km/h (3 Bft)
27.12.2016 09:25 4,9 C 4,3 C 4,4 C 4,5 C 3,2 C 0,0 C 75 % 81 % 0 % 1030,7 hPa 0,0 l/m 9,5 km/h (2 Bft) SW 225 0 min 0,8 C 0,6 C 9,0 km/h (2 Bft)
27.12.2016 09:30 5,1 C 4,3 C 4,5 C 4,7 C 2,9 C 0,0 C 75 % 81 % 0 % 1030,7 hPa 0,0 l/m 11,1 km/h (2 Bft) SW 225 0 min 1,0 C -0,1 C 18,7 km/h (3 Bft)
27.12.2016 09:35 5,1 C 4,3 C 4,7 C 4,6 C 2,5 C 0,0 C 75 % 80 % 0 % 1030,7 hPa 0,0 l/m 15,0 km/h (3 Bft) W-NW 292 0 min 1,0 C -1,3 C 18,3 km/h (3 Bft)
27.12.2016 09:40 5,1 C 4,4 C 4,6 C 4,6 C 2,3 C 0,0 C 75 % 80 % 0 % 1030,5 hPa 0,0 l/m 16,3 km/h (3 Bft) W-SW 247 0 min 1,0 C -1,8 C 22,5 km/h (4 Bft)
27.12.2016 09:45 5,1 C 4,4 C 4,7 C 4,6 C 2,6 C 0,0 C 75 % 81 % 0 % 1030,5 hPa 0,0 l/m 14,0 km/h (3 Bft) S 180 0 min 1,0 C -1,0 C 13,4 km/h (3 Bft)
27.12.2016 09:50 5,1 C 4,4 C 4,7 C 4,6 C 2,8 C 0,0 C 75 % 81 % 0 % 1030,5 hPa 0,0 l/m 13,0 km/h (3 Bft) W-SW 247 0 min 1,0 C -0,6 C 17,7 km/h (3 Bft)
27.12.2016 09:55 5,0 C 4,4 C 4,7 C 4,5 C 2,6 C 0,0 C 76 % 81 % 0 % 1030,5 hPa 0,0 l/m 13,5 km/h (3 Bft) W-SW 247 0 min 1,1 C -0,9 C 32,5 km/h (5 Bft)
27.12.2016 10:00 5,1 C 4,4 C 4,7 C 4,6 C 2,4 C 0,0 C 76 % 81 % 0 % 1030,8 hPa 0,0 l/m 14,2 km/h (3 Bft) W-SW 247 0 min 1,2 C -1,3 C 11,9 km/h (2 Bft)
27.12.2016 10:05 5,1 C 4,4 C 4,6 C 4,6 C 2,6 C 0,0 C 76 % 81 % 0 % 1030,8 hPa 0,0 l/m 14,3 km/h (3 Bft) W-SW 247 0 min 1,2 C -1,1 C 20,0 km/h (4 Bft)
27.12.2016 10:10 5,1 C 4,4 C 4,7 C 4,6 C 2,7 C 0,0 C 76 % 81 % 0 % 1030,8 hPa 0,0 l/m 13,5 km/h (3 Bft) W-SW 247 0 min 1,2 C -0,8 C 21,7 km/h (4 Bft)
27.12.2016 10:15 5,1 C 4,4 C 4,7 C 4,6 C 2,8 C 0,0 C 76 % 81 % 0 % 1030,8 hPa 0,0 l/m 12,9 km/h (3 Bft) S-SW 202 0 min 1,2 C -0,6 C 12,1 km/h (2 Bft)
27.12.2016 10:20 5,1 C 4,4 C 4,7 C 4,3 C 2,8 C 0,0 C 77 % 81 % 0 % 1030,8 hPa 0,0 l/m 13,0 km/h (3 Bft) SW 225 0 min 1,4 C -0,6 C 14,0 km/h (3 Bft)
27.12.2016 10:25 5,1 C 4,4 C 4,7 C 4,7 C 3,0 C 0,0 C 77 % 82 % 0 % 1030,8 hPa 0,0 l/m 12,1 km/h (2 Bft) W 270 0 min 1,4 C -0,2 C 12,6 km/h (3 Bft)
27.12.2016 10:30 5,1 C 4,4 C 4,8 C 4,7 C 2,9 C 0,0 C 77 % 82 % 0 % 1030,8 hPa 0,0 l/m 12,4 km/h (3 Bft) W-SW 247 0 min 1,4 C -0,4 C 9,7 km/h (2 Bft)
27.12.2016 10:35 5,2 C 4,4 C 4,8 C 4,8 C 3,1 C 0,0 C 77 % 82 % 0 % 1030,8 hPa 0,0 l/m 12,4 km/h (3 Bft) W-SW 247 0 min 1,5 C -0,1 C 9,2 km/h (2 Bft)
27.12.2016 10:40 5,2 C 4,4 C 4,8 C 4,8 C 3,2 C 0,0 C 77 % 82 % 0 % 1031,2 hPa 0,0 l/m 11,7 km/h (2 Bft) W-SW 247 0 min 1,5 C 0,1 C 15,3 km/h (3 Bft)
27.12.2016 10:45 5,2 C 4,4 C 4,8 C 4,8 C 3,4 C 0,0 C 77 % 82 % 0 % 1031,2 hPa 0,0 l/m 10,6 km/h (2 Bft) W-SW 247 0 min 1,5 C 0,6 C 9,0 km/h (2 Bft)
27.12.2016 10:50 5,2 C 4,4 C 4,8 C 4,9 C 3,6 C 0,0 C 77 % 82 % 0 % 1031,2 hPa 0,0 l/m 10,1 km/h (2 Bft) NW 315 0 min 1,5 C 1,0 C 18,8 km/h (3 Bft)
27.12.2016 10:55 5,3 C 4,4 C 4,8 C 4,9 C 3,4 C 0,0 C 77 % 82 % 0 % 1031,2 hPa 0,0 l/m 10,6 km/h (2 Bft) W-SW 247 0 min 1,6 C 0,6 C 13,7 km/h (3 Bft)
27.12.2016 11:00 5,2 C 4,4 C 4,8 C 4,8 C 3,3 C 0,0 C 77 % 82 % 0 % 1031,2 hPa 0,0 l/m 11,1 km/h (2 Bft) SW 225 0 min 1,5 C 0,4 C 11,3 km/h (2 Bft)
27.12.2016 11:05 5,3 C 4,4 C 4,9 C 4,9 C 3,2 C 0,0 C 77 % 82 % 0 % 1031,2 hPa 0,0 l/m 11,9 km/h (2 Bft) SW 225 0 min 1,6 C 0,1 C 17,9 km/h (3 Bft)
27.12.2016 11:10 5,3 C 4,4 C 4,8 C 4,9 C 3,1 C 0,0 C 77 % 82 % 0 % 1031,2 hPa 0,0 l/m 12,7 km/h (3 Bft) W 270 0 min 1,6 C -0,2 C 12,7 km/h (3 Bft)
27.12.2016 11:15 5,3 C 4,4 C 4,9 C 4,9 C 3,3 C 0,0 C 77 % 82 % 0 % 1031,2 hPa 0,0 l/m 11,6 km/h (2 Bft) W-SW 247 0 min 1,6 C 0,3 C 27,8 km/h (4 Bft)
27.12.2016 11:20 5,3 C 4,4 C 5,0 C 5,0 C 3,6 C 0,0 C 77 % 82 % 0 % 1031,4 hPa 0,0 l/m 10,8 km/h (2 Bft) W-SW 247 0 min 1,6 C 0,8 C 10,9 km/h (2 Bft)
27.12.2016 11:25 5,4 C 4,4 C 5,0 C 5,0 C 3,4 C 0,0 C 78 % 82 % 0 % 1031,4 hPa 0,0 l/m 11,3 km/h (2 Bft) W-SW 247 0 min 1,9 C 0,5 C 16,7 km/h (3 Bft)
27.12.2016 11:30 5,4 C 4,4 C 5,1 C 5,0 C 3,6 C 0,0 C 78 % 82 % 0 % 1031,4 hPa 0,0 l/m 11,4 km/h (2 Bft) SW 225 0 min 1,9 C 0,7 C 11,4 km/h (2 Bft)
27.12.2016 11:35 5,5 C 4,4 C 5,1 C 5,1 C 3,7 C 0,0 C 78 % 82 % 0 % 1031,4 hPa 0,0 l/m 10,8 km/h (2 Bft) W-SW 247 0 min 2,0 C 0,9 C 15,6 km/h (3 Bft)
27.12.2016 11:40 5,4 C 4,4 C 5,1 C 5,1 C 3,9 C 0,0 C 78 % 82 % 0 % 1031,4 hPa 0,0 l/m 10,1 km/h (2 Bft) W 270 0 min 1,9 C 1,3 C 12,9 km/h (3 Bft)
27.12.2016 11:45 5,5 C 4,4 C 5,1 C 5,2 C 3,7 C 0,0 C 78 % 82 % 0 % 1031,4 hPa 0,0 l/m 11,3 km/h (2 Bft) SW 225 0 min 2,0 C 0,8 C 8,2 km/h (2 Bft)
27.12.2016 11:50 5,5 C 4,4 C 5,1 C 5,1 C 3,6 C 0,0 C 77 % 82 % 0 % 1031,4 hPa 0,0 l/m 11,1 km/h (2 Bft) W-SW 247 0 min 1,8 C 0,7 C 9,0 km/h (2 Bft)
27.12.2016 11:55 5,5 C 4,4 C 5,1 C 5,1 C 3,7 C 0,0 C 77 % 82 % 0 % 1031,4 hPa 0,0 l/m 10,8 km/h (2 Bft) W 270 0 min 1,8 C 0,9 C 7,9 km/h (2 Bft)
27.12.2016 12:00 5,5 C 4,4 C 5,2 C 5,2 C 3,8 C 0,0 C 78 % 82 % 0 % 1031,7 hPa 0,0 l/m 10,0 km/h (2 Bft) W-SW 247 0 min 2,0 C 1,2 C 18,2 km/h (3 Bft)
27.12.2016 12:05 5,5 C 4,4 C 5,1 C 5,1 C 3,7 C 0,0 C 78 % 83 % 0 % 1031,7 hPa 0,0 l/m 9,2 km/h (2 Bft) W 270 0 min 2,0 C 1,3 C 6,1 km/h (2 Bft)
27.12.2016 12:10 5,5 C 4,4 C 4,9 C 5,1 C 3,5 C 0,0 C 78 % 83 % 0 % 1031,7 hPa 0,0 l/m 8,9 km/h (2 Bft) SW 225 0 min 2,0 C 1,1 C 8,4 km/h (2 Bft)
27.12.2016 12:15 5,5 C 4,5 C 4,8 C 5,0 C 3,2 C 0,0 C 79 % 84 % 0 % 1031,7 hPa 0,0 l/m 8,9 km/h (2 Bft) W-SW 247 0 min 2,2 C 0,8 C 12,2 km/h (2 Bft)
27.12.2016 12:20 5,5 C 4,5 C 4,7 C 4,9 C 3,0 C 0,0 C 79 % 85 % 0 % 1031,7 hPa 0,0 l/m 9,7 km/h (2 Bft) W-SW 247 0 min 2,2 C 0,3 C 4,8 km/h (1 Bft)
27.12.2016 12:25 5,4 C 4,5 C 4,6 C 4,8 C 2,8 C 0,0 C 79 % 85 % 0 % 1031,7 hPa 0,0 l/m 9,8 km/h (2 Bft) W 270 0 min 2,1 C 0,1 C 10,5 km/h (2 Bft)
27.12.2016 12:30 5,5 C 4,5 C 4,8 C 4,6 C 2,8 C 0,0 C 79 % 85 % 0 % 1031,7 hPa 0,0 l/m 10,0 km/h (2 Bft) W-SW 247 0 min 2,2 C 0,0 C 11,1 km/h (2 Bft)
27.12.2016 12:35 5,5 C 4,5 C 4,9 C 4,6 C 2,8 C 0,0 C 79 % 85 % 0 % 1031,7 hPa 0,0 l/m 10,3 km/h (2 Bft) NW 315 0 min 2,2 C -0,0 C 9,3 km/h (2 Bft)
27.12.2016 12:40 5,5 C 4,5 C 4,7 C 4,9 C 3,1 C 0,0 C 79 % 85 % 0 % 1031,7 hPa 0,0 l/m 9,5 km/h (2 Bft) W-SW 247 0 min 2,2 C 0,5 C 8,2 km/h (2 Bft)
27.12.2016 12:45 5,5 C 4,5 C 4,8 C 4,9 C 3,2 C 0,0 C 79 % 85 % 0 % 1031,7 hPa 0,0 l/m 8,7 km/h (2 Bft) S-SW 202 0 min 2,2 C 0,8 C 22,2 km/h (4 Bft)
27.12.2016 12:50 5,6 C 4,5 C 4,8 C 5,1 C 3,3 C 0,0 C 79 % 85 % 0 % 1031,7 hPa 0,0 l/m 9,2 km/h (2 Bft) W-SW 247 0 min 2,3 C 0,8 C 12,2 km/h (2 Bft)
27.12.2016 12:55 5,6 C 4,5 C 5,1 C 4,8 C 3,3 C 0,0 C 79 % 85 % 0 % 1031,7 hPa 0,0 l/m 9,8 km/h (2 Bft) W-SW 247 0 min 2,3 C 0,7 C 11,6 km/h (2 Bft)
27.12.2016 13:00 5,6 C 4,5 C 4,9 C 4,8 C 3,3 C 0,0 C 79 % 85 % 0 % 1031,6 hPa 0,0 l/m 9,3 km/h (2 Bft) W 270 0 min 2,3 C 0,8 C 12,9 km/h (3 Bft)
27.12.2016 13:05 5,5 C 4,5 C 4,7 C 4,8 C 3,3 C 0,0 C 80 % 88 % 0 % 1031,6 hPa 0,0 l/m 7,9 km/h (2 Bft) W 270 0 min 2,3 C 1,2 C 7,9 km/h (2 Bft)
27.12.2016 13:10 5,5 C 4,5 C 4,5 C 4,7 C 3,2 C 0,0 C 80 % 89 % 0 % 1031,6 hPa 0,0 l/m 6,9 km/h (2 Bft) W-SW 247 0 min 2,3 C 1,3 C 8,2 km/h (2 Bft)
27.12.2016 13:15 5,2 C 4,5 C 4,4 C 4,5 C 3,2 C 0,0 C 81 % 89 % 0 % 1031,6 hPa 0,0 l/m 6,1 km/h (2 Bft) SW 225 0 min 2,2 C 1,6 C 7,4 km/h (2 Bft)
27.12.2016 13:20 5,2 C 4,5 C 4,4 C 4,5 C 3,0 C 0,0 C 81 % 90 % 0 % 1031,6 hPa 0,7 l/m 6,8 km/h (2 Bft) W-SW 247 0 min 2,2 C 1,1 C 6,9 km/h (2 Bft)
27.12.2016 13:25 5,1 C 4,5 C 4,5 C 4,5 C 3,2 C 0,0 C 82 % 90 % 0 % 1031,6 hPa 0,0 l/m 6,6 km/h (2 Bft) W-SW 247 0 min 2,3 C 1,4 C 6,3 km/h (2 Bft)
27.12.2016 13:30 5,2 C 4,5 C 4,7 C 4,7 C 2,9 C 0,0 C 82 % 90 % 0 % 1031,6 hPa 0,0 l/m 7,9 km/h (2 Bft) W-SW 247 0 min 2,4 C 0,7 C 9,5 km/h (2 Bft)
27.12.2016 13:35 5,3 C 4,5 C 4,6 C 4,5 C 2,9 C 0,0 C 82 % 89 % 0 % 1031,6 hPa 0,0 l/m 9,7 km/h (2 Bft) W-SW 247 0 min 2,5 C 0,2 C 16,1 km/h (3 Bft)
27.12.2016 13:40 5,5 C 4,5 C 4,6 C 4,9 C 3,1 C 0,0 C 81 % 89 % 0 % 1031,6 hPa 0,0 l/m 9,8 km/h (2 Bft) W-SW 247 0 min 2,5 C 0,4 C 11,6 km/h (2 Bft)
27.12.2016 13:45 5,6 C 4,5 C 4,8 C 5,1 C 3,4 C 0,0 C 81 % 90 % 0 % 1031,6 hPa 0,0 l/m 10,6 km/h (2 Bft) SW 225 0 min 2,6 C 0,6 C 10,3 km/h (2 Bft)
27.12.2016 13:50 5,9 C 4,5 C 4,8 C 5,4 C 3,8 C 0,0 C 80 % 90 % 0 % 1031,6 hPa 0,0 l/m 10,3 km/h (2 Bft) W-SW 247 0 min 2,7 C 1,2 C 10,3 km/h (2 Bft)
27.12.2016 13:55 6,0 C 4,7 C 4,9 C 5,3 C 3,8 C 0,0 C 79 % 90 % 0 % 1031,6 hPa 0,0 l/m 10,6 km/h (2 Bft) W-SW 247 0 min 2,6 C 1,1 C 12,7 km/h (3 Bft)
27.12.2016 14:00 6,0 C 4,7 C 5,0 C 5,6 C 4,1 C 0,0 C 78 % 90 % 0 % 1032,2 hPa 0,0 l/m 10,3 km/h (2 Bft) SW 225 0 min 2,5 C 1,5 C 14,3 km/h (3 Bft)
27.12.2016 14:05 6,3 C 4,7 C 5,2 C 5,8 C 4,2 C 0,0 C 77 % 90 % 0 % 1032,2 hPa 0,0 l/m 11,1 km/h (2 Bft) W-SW 247 0 min 2,6 C 1,5 C 16,3 km/h (3 Bft)
27.12.2016 14:10 6,2 C 4,7 C 5,3 C 5,5 C 4,2 C 0,0 C 77 % 90 % 0 % 1032,2 hPa 0,0 l/m 11,3 km/h (2 Bft) W-SW 247 0 min 2,5 C 1,4 C 13,2 km/h (3 Bft)
27.12.2016 14:15 6,4 C 4,6 C 5,4 C 6,0 C 4,3 C 0,0 C 76 % 90 % 0 % 1032,2 hPa 0,0 l/m 12,1 km/h (2 Bft) W-SW 247 0 min 2,5 C 1,4 C 17,7 km/h (3 Bft)
27.12.2016 14:20 6,5 C 4,6 C 5,4 C 6,0 C 4,2 C 0,0 C 75 % 89 % 0 % 1032,2 hPa 0,0 l/m 13,0 km/h (3 Bft) W-SW 247 0 min 2,4 C 1,1 C 12,6 km/h (3 Bft)
27.12.2016 14:25 6,5 C 4,6 C 5,5 C 6,0 C 4,4 C 0,0 C 75 % 89 % 0 % 1032,2 hPa 0,0 l/m 11,9 km/h (2 Bft) S-SW 202 0 min 2,4 C 1,5 C 20,1 km/h (4 Bft)
27.12.2016 14:30 6,5 C 4,6 C 5,6 C 5,8 C 4,4 C 0,0 C 75 % 89 % 0 % 1032,2 hPa 0,0 l/m 12,1 km/h (2 Bft) W-SW 247 0 min 2,4 C 1,5 C 16,3 km/h (3 Bft)
27.12.2016 14:35 6,7 C 4,6 C 5,6 C 6,2 C 4,3 C 0,0 C 74 % 89 % 0 % 1032,2 hPa 0,0 l/m 13,2 km/h (3 Bft) W-SW 247 0 min 2,4 C 1,2 C 9,0 km/h (2 Bft)
27.12.2016 14:40 6,6 C 4,6 C 5,6 C 6,2 C 4,5 C 0,0 C 74 % 89 % 0 % 1032,0 hPa 0,0 l/m 12,9 km/h (3 Bft) W-NW 292 0 min 2,3 C 1,5 C 11,4 km/h (2 Bft)
27.12.2016 14:45 6,6 C 4,6 C 5,7 C 6,2 C 4,8 C 0,0 C 74 % 89 % 0 % 1032,0 hPa 0,0 l/m 11,4 km/h (2 Bft) SW 225 0 min 2,3 C 2,1 C 16,4 km/h (3 Bft)
27.12.2016 14:50 6,7 C 4,6 C 5,7 C 6,3 C 4,7 C 0,0 C 74 % 89 % 0 % 1032,0 hPa 0,0 l/m 11,7 km/h (2 Bft) W-SW 247 0 min 2,4 C 2,0 C 16,3 km/h (3 Bft)
27.12.2016 14:55 6,6 C 4,6 C 5,7 C 6,2 C 4,8 C 0,0 C 74 % 89 % 0 % 1032,0 hPa 0,0 l/m 11,1 km/h (2 Bft) W-SW 247 0 min 2,3 C 2,2 C 14,3 km/h (3 Bft)
27.12.2016 15:00 6,6 C 4,6 C 5,7 C 6,3 C 5,0 C 0,0 C 74 % 89 % 0 % 1032,6 hPa 0,0 l/m 10,3 km/h (2 Bft) W-SW 247 0 min 2,3 C 2,6 C 19,6 km/h (3 Bft)
27.12.2016 15:05 6,6 C 4,6 C 5,7 C 6,3 C 4,9 C 0,0 C 73 % 89 % 0 % 1032,6 hPa 0,0 l/m 10,5 km/h (2 Bft) SW 225 0 min 2,1 C 2,4 C 8,5 km/h (2 Bft)
27.12.2016 15:10 6,6 C 4,6 C 5,7 C 6,3 C 5,1 C 0,0 C 74 % 89 % 0 % 1032,6 hPa 0,0 l/m 10,0 km/h (2 Bft) W-SW 247 0 min 2,3 C 2,8 C 10,9 km/h (2 Bft)
27.12.2016 15:15 6,6 C 4,6 C 5,8 C 6,3 C 5,3 C 0,0 C 73 % 89 % 0 % 1032,6 hPa 0,0 l/m 8,7 km/h (2 Bft) SO 135 0 min 2,1 C 3,3 C 13,2 km/h (3 Bft)
27.12.2016 15:20 6,7 C 4,6 C 5,8 C 6,4 C 5,2 C 0,0 C 73 % 89 % 0 % 1032,6 hPa 0,0 l/m 9,2 km/h (2 Bft) W-SW 247 0 min 2,2 C 3,1 C 10,0 km/h (2 Bft)
27.12.2016 15:25 6,7 C 4,6 C 5,9 C 6,4 C 4,9 C 0,0 C 73 % 89 % 0 % 1032,6 hPa 0,0 l/m 10,5 km/h (2 Bft) W-SW 247 0 min 2,2 C 2,4 C 13,7 km/h (3 Bft)
27.12.2016 15:30 6,7 C 4,7 C 5,8 C 6,3 C 5,0 C 0,0 C 73 % 89 % 0 % 1032,6 hPa 0,0 l/m 10,3 km/h (2 Bft) W 270 0 min 2,2 C 2,6 C 13,5 km/h (3 Bft)
27.12.2016 15:35 6,7 C 4,7 C 5,9 C 6,4 C 5,2 C 0,0 C 73 % 89 % 0 % 1032,6 hPa 0,0 l/m 9,3 km/h (2 Bft) NW 315 0 min 2,2 C 3,1 C 14,3 km/h (3 Bft)
27.12.2016 15:40 6,8 C 4,7 C 5,9 C 6,3 C 5,2 C 0,0 C 74 % 89 % 0 % 1032,6 hPa 0,0 l/m 9,2 km/h (2 Bft) SW 225 0 min 2,5 C 3,1 C 14,8 km/h (3 Bft)
27.12.2016 15:45 6,7 C 4,7 C 5,9 C 6,2 C 5,2 C 0,0 C 74 % 89 % 0 % 1032,6 hPa 0,0 l/m 8,7 km/h (2 Bft) W-SW 247 0 min 2,4 C 3,2 C 8,0 km/h (2 Bft)
27.12.2016 15:50 6,7 C 4,7 C 5,8 C 6,4 C 5,1 C 0,0 C 74 % 89 % 0 % 1032,6 hPa 0,0 l/m 9,2 km/h (2 Bft) W-SW 247 0 min 2,4 C 3,0 C 7,2 km/h (2 Bft)
27.12.2016 15:55 6,8 C 4,7 C 5,9 C 6,2 C 5,1 C 0,0 C 74 % 89 % 0 % 1032,6 hPa 0,0 l/m 9,7 km/h (2 Bft) S 180 0 min 2,5 C 2,8 C 12,9 km/h (3 Bft)
27.12.2016 16:00 6,8 C 4,7 C 5,9 C 6,2 C 5,1 C 0,0 C 74 % 89 % 0 % 1032,6 hPa 0,0 l/m 9,7 km/h (2 Bft) W-SW 247 0 min 2,5 C 2,8 C 16,9 km/h (3 Bft)
27.12.2016 16:05 6,8 C 4,7 C 5,9 C 6,5 C 5,3 C 0,0 C 74 % 89 % 0 % 1032,6 hPa 0,0 l/m 9,3 km/h (2 Bft) S-SW 202 0 min 2,5 C 3,2 C 12,1 km/h (2 Bft)
27.12.2016 16:10 6,8 C 4,7 C 6,0 C 6,5 C 5,2 C 0,0 C 74 % 88 % 0 % 1032,6 hPa 0,0 l/m 10,0 km/h (2 Bft) W-SW 247 0 min 2,5 C 2,9 C 10,6 km/h (2 Bft)
27.12.2016 16:15 6,8 C 4,7 C 5,9 C 6,3 C 5,2 C 0,0 C 74 % 89 % 0 % 1032,6 hPa 0,0 l/m 9,5 km/h (2 Bft) NW 315 0 min 2,5 C 3,0 C 14,0 km/h (3 Bft)
27.12.2016 16:20 6,9 C 4,7 C 6,0 C 6,5 C 5,3 C 0,0 C 75 % 88 % 0 % 1032,6 hPa 0,0 l/m 8,7 km/h (2 Bft) S-SW 202 0 min 2,8 C 3,3 C 10,3 km/h (2 Bft)
27.12.2016 16:25 6,8 C 4,7 C 5,9 C 6,4 C 5,1 C 0,0 C 75 % 88 % 0 % 1032,6 hPa 0,0 l/m 8,9 km/h (2 Bft) W 270 0 min 2,7 C 3,0 C 20,0 km/h (4 Bft)
27.12.2016 16:30 6,8 C 4,7 C 5,9 C 6,2 C 5,1 C 0,0 C 75 % 88 % 0 % 1032,6 hPa 0,0 l/m 8,7 km/h (2 Bft) W-NW 292 0 min 2,7 C 3,1 C 10,0 km/h (2 Bft)
27.12.2016 16:35 6,8 C 4,7 C 5,9 C 6,5 C 5,3 C 0,0 C 75 % 88 % 0 % 1032,6 hPa 0,0 l/m 8,4 km/h (2 Bft) W-SW 247 0 min 2,7 C 3,4 C 7,9 km/h (2 Bft)
27.12.2016 16:40 6,8 C 4,7 C 6,0 C 6,5 C 5,5 C 0,0 C 75 % 88 % 0 % 1033,3 hPa 0,0 l/m 7,9 km/h (2 Bft) SO 135 0 min 2,7 C 3,7 C 7,4 km/h (2 Bft)
27.12.2016 16:45 6,8 C 4,7 C 5,9 C 6,5 C 5,2 C 0,0 C 76 % 88 % 0 % 1033,3 hPa 0,0 l/m 9,2 km/h (2 Bft) SW 225 0 min 2,9 C 3,1 C 10,6 km/h (2 Bft)
27.12.2016 16:50 6,9 C 4,7 C 6,0 C 6,5 C 5,3 C 0,0 C 76 % 88 % 0 % 1033,3 hPa 0,0 l/m 8,7 km/h (2 Bft) W-NW 292 0 min 3,0 C 3,3 C 11,4 km/h (2 Bft)
27.12.2016 16:55 6,9 C 4,9 C 5,9 C 6,5 C 5,6 C 0,0 C 76 % 88 % 0 % 1033,3 hPa 0,0 l/m 7,6 km/h (2 Bft) W-SW 247 0 min 3,0 C 3,9 C 11,3 km/h (2 Bft)
27.12.2016 17:00 6,9 C 4,9 C 5,9 C 6,5 C 5,0 C 0,0 C 77 % 88 % 0 % 1034,2 hPa 0,0 l/m 9,0 km/h (2 Bft) W-SW 247 0 min 3,2 C 2,9 C 13,8 km/h (3 Bft)
27.12.2016 17:05 6,7 C 4,9 C 5,7 C 6,2 C 4,6 C 0,0 C 77 % 89 % 0 % 1034,2 hPa 0,0 l/m 8,4 km/h (2 Bft) SW 225 0 min 3,0 C 2,6 C 4,3 km/h (1 Bft)
27.12.2016 17:10 6,7 C 4,9 C 5,7 C 6,0 C 4,7 C 0,0 C 78 % 89 % 0 % 1034,2 hPa 0,0 l/m 6,8 km/h (2 Bft) W-SW 247 0 min 3,1 C 3,1 C 6,4 km/h (2 Bft)
27.12.2016 17:15 6,7 C 4,9 C 5,7 C 6,2 C 4,4 C 0,0 C 78 % 89 % 0 % 1034,2 hPa 0,0 l/m 8,9 km/h (2 Bft) W-SW 247 0 min 3,1 C 2,2 C 15,4 km/h (3 Bft)
27.12.2016 17:20 6,8 C 4,9 C 5,8 C 6,0 C 4,4 C 0,0 C 78 % 88 % 0 % 1034,0 hPa 0,0 l/m 10,3 km/h (2 Bft) W-SW 247 0 min 3,2 C 1,9 C 14,0 km/h (3 Bft)
27.12.2016 17:25 6,9 C 4,9 C 5,9 C 6,4 C 5,2 C 0,0 C 78 % 89 % 0 % 1034,0 hPa 0,0 l/m 8,2 km/h (2 Bft) SW 225 0 min 3,3 C 3,3 C 4,2 km/h (1 Bft)
27.12.2016 17:30 6,8 C 4,9 C 5,9 C 6,5 C 5,3 C 0,0 C 78 % 88 % 0 % 1034,0 hPa 0,0 l/m 8,4 km/h (2 Bft) SW 225 0 min 3,2 C 3,4 C 17,7 km/h (3 Bft)
27.12.2016 17:35 6,9 C 4,9 C 6,0 C 6,5 C 5,2 C 0,0 C 78 % 88 % 0 % 1034,0 hPa 0,0 l/m 9,2 km/h (2 Bft) W 270 0 min 3,3 C 3,1 C 13,7 km/h (3 Bft)
27.12.2016 17:40 6,8 C 4,9 C 5,9 C 6,5 C 5,3 C 0,0 C 78 % 88 % 0 % 1034,4 hPa 0,0 l/m 9,0 km/h (2 Bft) W-SW 247 0 min 3,2 C 3,2 C 13,4 km/h (3 Bft)
27.12.2016 17:45 6,8 C 4,9 C 5,9 C 6,5 C 5,1 C 0,0 C 79 % 88 % 0 % 1034,4 hPa 0,0 l/m 9,2 km/h (2 Bft) S-SW 202 0 min 3,4 C 3,0 C 10,3 km/h (2 Bft)
27.12.2016 17:50 6,8 C 4,9 C 6,0 C 6,4 C 5,2 C 0,0 C 79 % 88 % 0 % 1034,4 hPa 0,0 l/m 8,7 km/h (2 Bft) W-SW 247 0 min 3,4 C 3,2 C 7,1 km/h (2 Bft)
27.12.2016 17:55 6,8 C 4,9 C 5,9 C 6,3 C 5,3 C 0,0 C 79 % 89 % 0 % 1034,4 hPa 0,0 l/m 7,6 km/h (2 Bft) W-SW 247 0 min 3,4 C 3,6 C 9,2 km/h (2 Bft)
27.12.2016 18:00 6,7 C 4,9 C 5,7 C 6,3 C 4,8 C 0,0 C 80 % 89 % 0 % 1034,7 hPa 0,0 l/m 7,9 km/h (2 Bft) W 270 0 min 3,5 C 2,9 C 15,4 km/h (3 Bft)
27.12.2016 18:05 6,7 C 5,0 C 5,8 C 6,2 C 4,3 C 0,0 C 81 % 89 % 0 % 1034,7 hPa 0,0 l/m 9,7 km/h (2 Bft) SW 225 0 min 3,7 C 1,9 C 10,5 km/h (2 Bft)
27.12.2016 18:10 6,6 C 5,0 C 5,9 C 6,0 C 4,0 C 0,0 C 81 % 89 % 0 % 1034,7 hPa 0,0 l/m 10,8 km/h (2 Bft) SW 225 0 min 3,6 C 1,3 C 14,3 km/h (3 Bft)
27.12.2016 18:15 6,7 C 5,0 C 5,9 C 6,1 C 4,5 C 0,0 C 81 % 89 % 0 % 1034,7 hPa 0,0 l/m 9,7 km/h (2 Bft) W 270 0 min 3,7 C 2,1 C 16,4 km/h (3 Bft)
27.12.2016 18:20 6,7 C 5,0 C 5,9 C 6,2 C 4,8 C 0,0 C 81 % 89 % 0 % 1034,7 hPa 0,0 l/m 9,2 km/h (2 Bft) W-SW 247 0 min 3,7 C 2,6 C 15,3 km/h (3 Bft)
27.12.2016 18:25 6,7 C 5,0 C 6,0 C 6,3 C 5,0 C 0,0 C 81 % 89 % 0 % 1034,7 hPa 0,0 l/m 9,0 km/h (2 Bft) SW 225 0 min 3,7 C 2,9 C 20,8 km/h (4 Bft)
27.12.2016 18:30 6,7 C 5,0 C 6,0 C 6,3 C 5,1 C 0,0 C 81 % 89 % 0 % 1034,7 hPa 0,0 l/m 8,4 km/h (2 Bft) W-SW 247 0 min 3,7 C 3,1 C 5,0 km/h (1 Bft)
27.12.2016 18:35 6,5 C 5,0 C 5,9 C 6,0 C 5,1 C 0,0 C 81 % 89 % 0 % 1034,7 hPa 0,0 l/m 8,4 km/h (2 Bft) W-SW 247 0 min 3,5 C 3,1 C 11,6 km/h (2 Bft)
27.12.2016 18:40 6,5 C 5,0 C 5,9 C 6,0 C 5,1 C 0,0 C 82 % 89 % 0 % 1035,1 hPa 0,0 l/m 8,7 km/h (2 Bft) W 270 0 min 3,7 C 3,1 C 8,4 km/h (2 Bft)
27.12.2016 18:45 6,5 C 5,0 C 5,9 C 6,0 C 5,1 C 0,0 C 82 % 89 % 0 % 1035,1 hPa 0,0 l/m 8,9 km/h (2 Bft) W-SW 247 0 min 3,7 C 3,0 C 12,1 km/h (2 Bft)
27.12.2016 18:50 6,4 C 5,0 C 5,9 C 6,0 C 5,1 C 0,0 C 82 % 89 % 0 % 1035,1 hPa 0,0 l/m 8,9 km/h (2 Bft) N-NO 22 0 min 3,6 C 3,0 C 9,0 km/h (2 Bft)
27.12.2016 18:55 6,4 C 5,0 C 6,0 C 6,1 C 5,4 C 0,0 C 82 % 90 % 0 % 1035,1 hPa 0,0 l/m 7,2 km/h (2 Bft) SW 225 0 min 3,6 C 3,8 C 4,3 km/h (1 Bft)
27.12.2016 19:00 6,4 C 5,0 C 5,9 C 6,2 C 5,9 C 0,0 C 82 % 90 % 0 % 1035,0 hPa 0,0 l/m 5,6 km/h (1 Bft) N-NO 22 0 min 3,6 C 4,9 C 6,4 km/h (2 Bft)
27.12.2016 19:05 6,4 C 5,0 C 5,9 C 6,2 C 5,8 C 0,0 C 82 % 90 % 0 % 1035,0 hPa 0,0 l/m 5,6 km/h (1 Bft) N-NW 337 0 min 3,6 C 4,8 C 7,2 km/h (2 Bft)
27.12.2016 19:10 6,4 C 5,0 C 6,0 C 6,1 C 5,6 C 0,0 C 82 % 90 % 0 % 1035,0 hPa 0,0 l/m 6,6 km/h (2 Bft) SW 225 0 min 3,6 C 4,2 C 7,7 km/h (2 Bft)
27.12.2016 19:15 6,4 C 5,1 C 5,9 C 6,0 C 5,2 C 0,0 C 82 % 90 % 0 % 1035,0 hPa 0,0 l/m 6,8 km/h (2 Bft) W-SW 247 0 min 3,6 C 3,7 C 7,9 km/h (2 Bft)
27.12.2016 19:20 6,3 C 5,1 C 5,8 C 6,0 C 5,3 C 0,0 C 82 % 90 % 0 % 1035,0 hPa 0,0 l/m 6,1 km/h (2 Bft) S 180 0 min 3,5 C 4,0 C 10,3 km/h (2 Bft)
27.12.2016 19:25 6,2 C 5,1 C 5,8 C 5,8 C 4,9 C 0,0 C 83 % 90 % 0 % 1035,0 hPa 0,0 l/m 6,8 km/h (2 Bft) W 270 0 min 3,5 C 3,4 C 5,5 km/h (1 Bft)
27.12.2016 19:30 6,1 C 5,1 C 5,9 C 5,7 C 4,8 C 0,0 C 83 % 90 % 0 % 1035,0 hPa 0,0 l/m 7,2 km/h (2 Bft) S-SW 202 0 min 3,4 C 3,1 C 6,0 km/h (2 Bft)
27.12.2016 19:35 6,0 C 5,1 C 5,9 C 5,6 C 4,7 C 0,0 C 83 % 90 % 0 % 1035,0 hPa 0,0 l/m 7,4 km/h (2 Bft) W-SW 247 0 min 3,3 C 2,9 C 8,7 km/h (2 Bft)
27.12.2016 19:40 5,9 C 5,1 C 5,8 C 5,5 C 4,7 C 0,0 C 83 % 90 % 0 % 1035,0 hPa 0,0 l/m 7,1 km/h (2 Bft) W 270 0 min 3,2 C 3,0 C 3,9 km/h (1 Bft)
27.12.2016 19:45 5,8 C 5,1 C 5,8 C 5,5 C 4,9 C 0,0 C 84 % 90 % 0 % 1035,0 hPa 0,0 l/m 6,1 km/h (2 Bft) SW 225 0 min 3,3 C 3,6 C 5,8 km/h (2 Bft)
27.12.2016 19:50 5,7 C 5,1 C 5,7 C 5,4 C 4,8 C 0,0 C 84 % 90 % 0 % 1035,0 hPa 0,0 l/m 6,6 km/h (2 Bft) SW 225 0 min 3,2 C 3,3 C 14,0 km/h (3 Bft)
27.12.2016 19:55 5,5 C 5,2 C 5,6 C 5,2 C 4,6 C 0,0 C 84 % 90 % 0 % 1035,0 hPa 0,0 l/m 6,9 km/h (2 Bft) NW 315 0 min 3,0 C 3,0 C 8,0 km/h (2 Bft)
27.12.2016 20:00 5,5 C 5,2 C 5,6 C 5,2 C 4,6 C 0,0 C 84 % 90 % 0 % 1035,0 hPa 0,0 l/m 7,1 km/h (2 Bft) SW 225 0 min 3,0 C 2,9 C 5,8 km/h (2 Bft)
27.12.2016 20:05 5,2 C 5,2 C 5,5 C 5,0 C 4,7 C 0,0 C 84 % 90 % 0 % 1035,0 hPa 0,0 l/m 6,1 km/h (2 Bft) W-SW 247 0 min 2,7 C 3,3 C 6,4 km/h (2 Bft)
27.12.2016 20:10 5,2 C 5,2 C 5,5 C 5,0 C 4,6 C 0,0 C 84 % 90 % 0 % 1035,0 hPa 0,0 l/m 6,4 km/h (2 Bft) W-SW 247 0 min 2,7 C 3,1 C 5,8 km/h (2 Bft)
27.12.2016 20:15 5,1 C 5,2 C 5,5 C 4,9 C 4,6 C 0,0 C 85 % 90 % 0 % 1035,0 hPa 0,0 l/m 6,6 km/h (2 Bft) NW 315 0 min 2,8 C 3,1 C 10,5 km/h (2 Bft)
27.12.2016 20:20 4,9 C 5,2 C 5,5 C 4,8 C 4,7 C 0,0 C 85 % 90 % 0 % 1036,0 hPa 0,0 l/m 6,0 km/h (2 Bft) W-SW 247 0 min 2,6 C 3,4 C 6,9 km/h (2 Bft)
27.12.2016 20:25 4,9 C 5,2 C 5,5 C 4,9 C 4,8 C 0,0 C 85 % 89 % 0 % 1036,0 hPa 0,0 l/m 5,5 km/h (1 Bft) NW 315 0 min 2,6 C 3,7 C 6,1 km/h (2 Bft)
27.12.2016 20:30 4,8 C 5,2 C 5,5 C 4,9 C 4,9 C 0,1 C 85 % 89 % 0 % 1036,0 hPa 0,0 l/m 5,0 km/h (1 Bft) SW 225 0 min 2,5 C 4,0 C 5,8 km/h (2 Bft)
27.12.2016 20:35 4,7 C 5,2 C 5,4 C 5,2 C 5,2 C 0,5 C 85 % 88 % 0 % 1036,0 hPa 0,0 l/m 4,3 km/h (1 Bft) W 270 0 min 2,4 C 5,2 C 4,3 km/h (1 Bft)
27.12.2016 20:40 4,7 C 5,2 C 5,5 C 5,2 C 5,2 C 0,5 C 85 % 88 % 0 % 1036,0 hPa 0,7 l/m 4,2 km/h (1 Bft) S 180 0 min 2,4 C 5,2 C 7,6 km/h (2 Bft)
27.12.2016 20:45 4,7 C 5,2 C 5,5 C 4,9 C 4,9 C 0,2 C 85 % 87 % 0 % 1036,0 hPa 0,0 l/m 4,8 km/h (1 Bft) W 270 0 min 2,4 C 4,0 C 6,4 km/h (2 Bft)
27.12.2016 20:50 4,7 C 5,2 C 5,5 C 4,7 C 4,7 C 0,0 C 85 % 87 % 0 % 1036,0 hPa 0,0 l/m 5,6 km/h (1 Bft) SW 225 0 min 2,4 C 3,5 C 7,7 km/h (2 Bft)
27.12.2016 20:55 4,7 C 5,2 C 5,4 C 4,6 C 4,5 C 0,0 C 86 % 86 % 0 % 1036,0 hPa 0,0 l/m 6,1 km/h (2 Bft) W-SW 247 0 min 2,6 C 3,1 C 10,0 km/h (2 Bft)
27.12.2016 21:00 4,7 C 5,2 C 5,5 C 4,6 C 4,4 C 0,0 C 86 % 85 % 0 % 1036,0 hPa 0,0 l/m 6,4 km/h (2 Bft) W-SW 247 0 min 2,6 C 2,9 C 9,0 km/h (2 Bft)
27.12.2016 21:05 4,6 C 5,2 C 5,5 C 4,5 C 4,3 C 0,0 C 86 % 85 % 0 % 1036,0 hPa 0,0 l/m 6,9 km/h (2 Bft) W-SW 247 0 min 2,5 C 2,6 C 8,7 km/h (2 Bft)
27.12.2016 21:10 4,6 C 5,2 C 5,5 C 4,5 C 4,4 C 0,0 C 86 % 85 % 0 % 1036,0 hPa 0,0 l/m 6,6 km/h (2 Bft) SW 225 0 min 2,5 C 2,8 C 11,4 km/h (2 Bft)
27.12.2016 21:15 4,7 C 5,2 C 5,5 C 4,5 C 4,2 C 0,0 C 86 % 84 % 0 % 1036,0 hPa 0,0 l/m 7,2 km/h (2 Bft) O-NO 67 0 min 2,6 C 2,4 C 11,4 km/h (2 Bft)
27.12.2016 21:20 4,7 C 5,2 C 5,5 C 4,6 C 4,3 C 0,0 C 86 % 84 % 0 % 1036,0 hPa 0,0 l/m 6,9 km/h (2 Bft) S-SW 202 0 min 2,6 C 2,6 C 10,3 km/h (2 Bft)
27.12.2016 21:25 4,7 C 5,4 C 5,5 C 4,6 C 4,3 C 0,0 C 86 % 84 % 0 % 1036,0 hPa 0,0 l/m 6,9 km/h (2 Bft) W-SW 247 0 min 2,6 C 2,6 C 13,2 km/h (3 Bft)
27.12.2016 21:30 4,7 C 5,4 C 5,4 C 4,5 C 4,2 C 0,0 C 86 % 83 % 0 % 1036,0 hPa 0,0 l/m 7,2 km/h (2 Bft) S-SW 202 0 min 2,6 C 2,4 C 7,4 km/h (2 Bft)
27.12.2016 21:35 4,7 C 5,4 C 5,4 C 4,6 C 4,3 C 0,0 C 86 % 83 % 0 % 1036,0 hPa 0,0 l/m 6,8 km/h (2 Bft) W-SW 247 0 min 2,6 C 2,7 C 7,9 km/h (2 Bft)
27.12.2016 21:40 4,6 C 5,4 C 5,4 C 4,5 C 4,3 C 0,0 C 86 % 83 % 0 % 1036,0 hPa 0,0 l/m 6,8 km/h (2 Bft) W-SW 247 0 min 2,5 C 2,7 C 13,5 km/h (3 Bft)
27.12.2016 21:45 4,6 C 5,4 C 5,4 C 4,5 C 4,3 C 0,0 C 86 % 82 % 0 % 1036,0 hPa 0,0 l/m 7,1 km/h (2 Bft) SO 135 0 min 2,5 C 2,6 C 14,5 km/h (3 Bft)
27.12.2016 21:50 4,6 C 5,4 C 5,4 C 4,7 C 4,1 C 0,1 C 86 % 82 % 0 % 1036,0 hPa 0,0 l/m 7,7 km/h (2 Bft) SW 225 0 min 2,5 C 2,2 C 12,4 km/h (3 Bft)
27.12.2016 21:55 4,5 C 5,4 C 5,4 C 4,5 C 4,4 C 0,0 C 86 % 82 % 0 % 1036,0 hPa 0,0 l/m 6,4 km/h (2 Bft) SW 225 0 min 2,4 C 2,9 C 7,7 km/h (2 Bft)
27.12.2016 22:00 4,5 C 5,4 C 5,3 C 4,5 C 4,4 C 0,0 C 86 % 82 % 0 % 1036,4 hPa 0,0 l/m 6,6 km/h (2 Bft) SW 225 0 min 2,4 C 2,8 C 9,5 km/h (2 Bft)
27.12.2016 22:05 4,4 C 5,4 C 5,3 C 4,7 C 4,0 C 0,3 C 86 % 82 % 0 % 1036,4 hPa 0,0 l/m 7,7 km/h (2 Bft) W-SW 247 0 min 2,3 C 2,0 C 7,7 km/h (2 Bft)
27.12.2016 22:10 4,4 C 5,4 C 5,3 C 4,5 C 3,9 C 0,1 C 86 % 81 % 0 % 1036,4 hPa 0,0 l/m 8,0 km/h (2 Bft) SW 225 0 min 2,3 C 1,8 C 11,7 km/h (2 Bft)
27.12.2016 22:15 4,4 C 5,4 C 5,3 C 4,3 C 4,2 C 0,0 C 86 % 81 % 0 % 1036,4 hPa 0,0 l/m 7,1 km/h (2 Bft) W-SW 247 0 min 2,3 C 2,5 C 10,1 km/h (2 Bft)
27.12.2016 22:20 4,4 C 5,4 C 5,3 C 4,3 C 4,1 C 0,0 C 87 % 81 % 0 % 1036,0 hPa 0,7 l/m 7,4 km/h (2 Bft) W 270 0 min 2,4 C 2,2 C 6,9 km/h (2 Bft)
27.12.2016 22:25 4,4 C 5,5 C 5,3 C 4,3 C 4,1 C 0,0 C 87 % 81 % 0 % 1036,0 hPa 0,0 l/m 7,6 km/h (2 Bft) W-SW 247 0 min 2,4 C 2,2 C 5,1 km/h (1 Bft)
27.12.2016 22:30 4,4 C 5,5 C 5,3 C 4,4 C 4,3 C 0,0 C 87 % 81 % 0 % 1036,0 hPa 0,0 l/m 6,8 km/h (2 Bft) SW 225 0 min 2,4 C 2,7 C 8,0 km/h (2 Bft)
27.12.2016 22:35 4,4 C 5,5 C 5,3 C 4,3 C 4,2 C 0,0 C 87 % 81 % 0 % 1036,0 hPa 0,0 l/m 7,1 km/h (2 Bft) SW 225 0 min 2,4 C 2,5 C 9,5 km/h (2 Bft)
27.12.2016 22:40 4,4 C 5,5 C 5,3 C 4,6 C 4,0 C 0,2 C 87 % 81 % 0 % 1036,1 hPa 0,0 l/m 7,7 km/h (2 Bft) SW 225 0 min 2,4 C 2,0 C 12,4 km/h (3 Bft)
27.12.2016 22:45 4,5 C 5,5 C 5,3 C 4,4 C 4,1 C 0,0 C 87 % 80 % 0 % 1036,1 hPa 0,0 l/m 7,6 km/h (2 Bft) W-SW 247 0 min 2,5 C 2,2 C 5,8 km/h (2 Bft)
27.12.2016 22:50 4,4 C 5,5 C 5,3 C 4,4 C 4,3 C 0,0 C 87 % 80 % 0 % 1036,1 hPa 0,0 l/m 6,8 km/h (2 Bft) W-SW 247 0 min 2,4 C 2,7 C 7,6 km/h (2 Bft)
27.12.2016 22:55 4,4 C 5,5 C 5,3 C 4,6 C 4,6 C 0,2 C 87 % 80 % 0 % 1036,1 hPa 0,0 l/m 6,0 km/h (2 Bft) W-SW 247 0 min 2,4 C 3,3 C 6,9 km/h (2 Bft)
27.12.2016 23:00 4,4 C 5,5 C 5,3 C 4,5 C 4,5 C 0,1 C 87 % 80 % 0 % 1036,2 hPa 0,0 l/m 6,1 km/h (2 Bft) SW 225 0 min 2,4 C 3,1 C 5,3 km/h (1 Bft)
27.12.2016 23:05 4,3 C 5,5 C 5,2 C 4,3 C 4,3 C 0,0 C 87 % 79 % 0 % 1036,2 hPa 0,0 l/m 6,6 km/h (2 Bft) W-SW 247 0 min 2,3 C 2,7 C 4,8 km/h (1 Bft)
27.12.2016 23:10 4,3 C 5,5 C 5,2 C 4,3 C 4,3 C 0,0 C 87 % 79 % 0 % 1036,2 hPa 0,0 l/m 6,6 km/h (2 Bft) SW 225 0 min 2,3 C 2,7 C 7,6 km/h (2 Bft)
27.12.2016 23:15 4,3 C 5,5 C 5,2 C 4,7 C 4,7 C 0,4 C 87 % 79 % 0 % 1036,2 hPa 0,7 l/m 5,6 km/h (1 Bft) SW 225 0 min 2,3 C 3,5 C 6,1 km/h (2 Bft)
27.12.2016 23:20 4,3 C 5,5 C 5,2 C 4,5 C 4,5 C 0,2 C 87 % 79 % 0 % 1036,2 hPa 0,0 l/m 6,1 km/h (2 Bft) W-SW 247 0 min 2,3 C 3,1 C 8,4 km/h (2 Bft)
27.12.2016 23:25 4,3 C 5,5 C 5,2 C 4,3 C 4,3 C 0,0 C 87 % 79 % 0 % 1036,2 hPa 0,0 l/m 6,9 km/h (2 Bft) W-SW 247 0 min 2,3 C 2,6 C 17,1 km/h (3 Bft)
27.12.2016 23:30 4,3 C 5,5 C 5,2 C 4,2 C 4,1 C 0,0 C 87 % 79 % 0 % 1036,2 hPa 0,0 l/m 7,2 km/h (2 Bft) SW 225 0 min 2,3 C 2,3 C 8,2 km/h (2 Bft)
27.12.2016 23:35 4,3 C 5,5 C 5,2 C 4,5 C 3,8 C 0,2 C 87 % 79 % 0 % 1036,2 hPa 0,0 l/m 7,9 km/h (2 Bft) W-SW 247 0 min 2,3 C 1,8 C 7,9 km/h (2 Bft)
27.12.2016 23:40 4,3 C 5,5 C 5,2 C 4,1 C 3,8 C 0,0 C 87 % 79 % 0 % 1035,9 hPa 0,0 l/m 8,0 km/h (2 Bft) W-SW 247 0 min 2,3 C 1,7 C 7,2 km/h (2 Bft)
27.12.2016 23:45 4,3 C 5,5 C 5,2 C 4,2 C 3,9 C 0,0 C 88 % 78 % 0 % 1035,9 hPa 0,0 l/m 7,6 km/h (2 Bft) W-SW 247 0 min 2,5 C 2,0 C 8,9 km/h (2 Bft)
27.12.2016 23:50 4,3 C 5,5 C 5,2 C 4,2 C 3,9 C 0,0 C 88 % 78 % 0 % 1035,9 hPa 0,0 l/m 7,6 km/h (2 Bft) W-SW 247 0 min 2,5 C 2,0 C 11,6 km/h (2 Bft)
27.12.2016 23:55 4,2 C 5,5 C 5,2 C 4,2 C 4,1 C 0,0 C 88 % 78 % 0 % 1035,9 hPa 0,0 l/m 7,2 km/h (2 Bft) SW 225 0 min 2,4 C 2,3 C 5,3 km/h (1 Bft)
_ Min-Zeit 01:10 07:10 01:10 01:30 02:05 00:00 00:00 23:45 00:00 00:00 - 20:40 - - - 01:10 02:05 19:40
Minimum _ 3,2 C 4,3 C 2,3 C 2,0 C -0,7 C 0,0 C 72 % 78 % 0 % 1028,6 hPa - 4,2 km/h (1 Bft) - - - -1,0 C -4,9 C 3,9 km/h (1 Bft)
_ Max-Zeit 16:20 22:25 16:10 16:05 19:00 20:35 23:45 13:20 00:00 22:00 13:20 06:30 - - 00:00 18:05 20:35 09:55
Maximum _ 6,9 C 5,5 C 6,0 C 6,5 C 5,9 C 0,5 C 88 % 90 % 0 % 1036,4 hPa 0,7 l/m 16,7 km/h
W-SW (3 Bft)
- - 0 min 3,7 C 5,2 C 32,5 km/h
W-SW (5 Bft)
Durchschnitt _ 5,0 C 4,7 C 4,6 C 4,5 C 3,0 C 0,0 C 78 % 84 % 0 % 1031,8 hPa #2,7 l/m 10,5 km/h (2 Bft) W-SW - #0 min. 1,5 C 0,2 C 13,2 km/h (3 Bft)
2016 www.wetterstation-wechselburg.de